Flag for Canada Weather past 2 weeks in Saanich, British Columbia, Canada

Now
54 °F

Light rain. Mostly cloudy.


Feels Like: 49 °F
Forecast: 53 / 58 °F
Wind: 14 mph from Southeast

Location: Victoria Int. Airportb. C.

Current Time: Oct 21, 2014 at 6:47:15 PM

Latest Report: Oct 21, 2014 at 6:00 PM


Visibility: 12 mi

Pressure: 29.77 "Hg

Humidity: 94%

Dew point: 52 °F

Location of SaanichLocation

Historic Weather in Saanich — Graph

°F

Saanich temperature yesterday

Maximum temperature yesterday: 61 °F (at 11:00 AM)
Minimum temperature yesterday: 54 °F (at 3:00 AM)
Average temperature yesterday: 56 °F

Past Weeks' High & Low Weather Summary

 TemperatureHumidityPressure
High68 °F (Oct 6, 5:00 PM)100% (Oct 7, 6:00 AM)30.22 "Hg (Oct 7, 6:00 AM)
Low46 °F (Oct 12, 2:00 AM)56% (Oct 11, 3:00 PM)29.49 "Hg (Oct 15, 5:00 AM)
Average55 °F90%29.87 "Hg
* Reported Oct 6 5:00 PM — Oct 21 5:00 PM, Saanich, Weather by CustomWeather, © 2014

Note: Actual official high and low records may vary slightly from our data, if they occured in-between our weather recording intervals... More about our weather records

Advertising

Saanich weather history for previous 24 hours

 ConditionsComfort  
Time TempWeatherWind HumidityBarometerVisibility
5:00 PM
Oct 21
54 °FBroken clouds.12 mph94%29.78 "Hg30 mi
4:00 PM55 °FBroken clouds.12 mph88%29.80 "Hg30 mi
3:00 PM57 °FPartly sunny.7 mph82%29.79 "Hg30 mi
2:51 PM57 °FScattered clouds.10 mph82%29.79 "Hg30 mi
2:00 PM57 °FPartly sunny.13 mph82%29.81 "Hg30 mi
1:00 PM57 °FBroken clouds.13 mph82%29.83 "Hg30 mi
12:00 PM55 °FBroken clouds.12 mph88%29.85 "Hg30 mi
11:00 AM55 °FPartly sunny.14 mph88%29.84 "Hg30 mi
10:00 AM55 °FPassing clouds.13 mph82%29.84 "Hg30 mi
9:00 AM54 °FPartly sunny.5 mph88%29.82 "Hg20 mi
8:00 AM52 °FPassing clouds.5 mph94%29.80 "Hg12 mi
7:00 AM54 °FLight rain. Fog.9 mph94%29.78 "Hg5 mi
6:00 AM54 °FFog.7 mph94%29.78 "Hg5 mi
5:00 AM52 °FFog.7 mph94%29.77 "Hg5 mi
4:00 AM52 °FLight rain. Fog.8 mph100%29.75 "Hg3 mi
3:45 AM54 °FLight rain. Fog.9 mph94%29.76 "Hg5 mi
3:00 AM54 °FFog.7 mph94%29.76 "Hg3 mi
2:00 AM54 °FFog.7 mph94%29.76 "Hg1 mi
1:54 AM54 °FFog.7 mph94%29.76 "Hg1 mi
1:00 AM52 °FPassing clouds.3 mph100%29.75 "Hg12 mi
12:00 AM54 °FPassing clouds.7 mph94%29.74 "Hg30 mi
11:00 PM
Oct 20
54 °FPartly cloudy.8 mph94%29.74 "Hg30 mi
10:00 PM54 °FPassing clouds.6 mph94%29.73 "Hg20 mi
9:00 PM55 °FLight rain. Mostly cloudy.3 mph94%29.72 "Hg15 mi
8:00 PM55 °FOvercast.2 mph94%29.73 "Hg20 mi
7:00 PM57 °FLight rain. Overcast.No wind88%29.72 "Hg20 mi
6:00 PM59 °FPartly sunny.5 mph77%29.71 "Hg20 mi
Weather by CustomWeather, © 2014

See weather overviewHow to use our weather pages